This is the latest recevied weather packets stored in our database for station/object HA8LNU. If no packets are shown the sender has not sent any weather packets the latest 10 day(s).
| Time | Temp. | Humidity | Pressure | Rain* | Wind** | Luminosity | Snow |
|---|---|---|---|---|---|---|---|
| 1778241354 | 23.33° C | 43% | 1016.4 hPa | 0 mm | - | - | - |
| 1778238323 | 22.22° C | 53% | 1016.7 hPa | 0 mm | - | - | - |
| 1778232965 | 22.22° C | 56% | 1017.5 hPa | 0 mm | - | - | - |
| 1778228168 | 24.44° C | 51% | 1017.4 hPa | 0 mm | - | - | - |
| 1778227546 | 23.33° C | 53% | 1017.3 hPa | 0 mm | - | - | - |
| 1778226943 | 23.33° C | 54% | 1017.4 hPa | 0 mm | - | - | - |
| 1778225739 | 22.22° C | 62% | 1017.4 hPa | 0 mm | - | - | - |
| 1778224535 | 20.56° C | 70% | 1017.3 hPa | 0 mm | - | - | - |
| 1778223331 | 18.89° C | 72% | 1017.3 hPa | 0 mm | - | - | - |
| 1778221519 | 20° C | 88% | 1017.3 hPa | 0 mm | - | - | - |
| 1778217975 | 15.56° C | 99% | 1017.1 hPa | 0 mm | - | - | - |
| 1778212539 | 13.33° C | 98% | 1016.4 hPa | 0 mm | - | - | - |
| 1778202918 | 13.89° C | 95% | 1016.6 hPa | 0.51 mm | - | - | - |
| 1778195731 | 14.44° C | 93% | 1016.7 hPa | 0 mm | - | - | - |
| 1778190356 | 15° C | 89% | 1016.4 hPa | 0 mm | - | - | - |
| 1778189151 | 15° C | 88% | 1016.3 hPa | 0 mm | - | - | - |
| 1778187340 | 15° C | 88% | 1016.2 hPa | 0 mm | - | - | - |
| 1778186732 | 15° C | 87% | 1016.1 hPa | 0 mm | - | - | - |
| 1778185528 | 15° C | 87% | 1016.2 hPa | 0 mm | - | - | - |
| 1778181965 | 15.56° C | 84% | 1015.8 hPa | 0 mm | - | - | - |
| 1778178361 | 16.11° C | 80% | 1015.7 hPa | 0 mm | - | - | - |
| 1778177131 | 16.67° C | 80% | 1015.6 hPa | 0 mm | - | - | - |
| 1778176529 | 16.67° C | 80% | 1015.4 hPa | 0 mm | - | - | - |
| 1778175320 | 16.67° C | 78% | 1015.4 hPa | 0 mm | - | - | - |
| 1778174718 | 17.22° C | 77% | 1015.3 hPa | 0 mm | - | - | - |
* Rain latest hour (hover to see other rain measurements)
** Current wind speed in m/s (hover to see current wind gust speed)